カタログに戻る

FENGYUN 1C DEB

運用中SSO
NORAD 35165·DEBRIS·🇨🇳 China

打ち上げ May 10, 1999 から Taiyuan Satellite Launch Center

Loading…

次のパス (今後24時間)

TLE

最新Source: Space-Track

元期: Sep 13, 2026, 05:43 UTC

1 35165U 99025DMV 26256.23873390  .00002838  00000-0  98443-3 0  9993
2 35165  98.8770   0.8411 0018745 331.8992  28.1180 14.36311579936586

AllMySatでFENGYUN 1C DEBをリアルタイム追跡

Download on the App Store